Location: Kalberh�ni
(46.4610°N, 7.2453°E)
Time: 21:14:02
(UTC+00:00)

USA 229 - Pass Details

Date: 23 October 2021
Orbit: 946 x 1266 km, 63.4° (Epoch: 25 November)

Event Time Altitude Azimuth Distance (km) Brightness Sun altitude
Exits shadow 04:22:02 25° 267° (W) 2,214 4.7 -17.4°
Maximum altitude 04:23:31 27° 249° (WSW) 2,155 4.7 -17.2°
Drops below altitude 10° 04:29:44 10° 195° (SSW) 3,221 6.0 -16.1°
Sets 04:33:02 0° 184° (S) 4,201 6.8 -15.6°
